TimeEDT,TemperatureF,Dew PointF,Humidity,Sea Level PressureIn,VisibilityMPH,Wind Direction,Wind SpeedMPH,Gust SpeedMPH,PrecipitationIn,Events,Conditions,WindDirDegrees,DateUTC
12:51 AM,50.0,46.9,89,30.30,10.0,NE,3.5,-,N/A,,Overcast,40,2013-05-19 04:51:00
1:51 AM,50.0,46.9,89,30.30,10.0,Calm,Calm,-,N/A,,Overcast,0,2013-05-19 05:51:00
2:51 AM,48.9,46.0,90,30.31,10.0,North,3.5,-,N/A,,Overcast,350,2013-05-19 06:51:00
3:11 AM,48.2,46.4,93,30.30,10.0,North,4.6,-,N/A,,Overcast,360,2013-05-19 07:11:00
3:51 AM,48.2,46.4,93,30.31,10.0,Calm,Calm,-,N/A,,Overcast,0,2013-05-19 07:51:00
4:51 AM,48.9,46.0,90,30.32,10.0,North,3.5,-,N/A,,Overcast,10,2013-05-19 08:51:00
5:51 AM,48.0,46.0,93,30.33,10.0,North,3.5,-,N/A,,Overcast,10,2013-05-19 09:51:00
6:51 AM,46.9,45.0,93,30.35,10.0,ENE,4.6,-,N/A,,Overcast,60,2013-05-19 10:51:00
7:51 AM,48.0,46.0,93,30.35,10.0,Calm,Calm,-,N/A,,Overcast,0,2013-05-19 11:51:00
8:51 AM,51.1,46.0,83,30.36,10.0,Calm,Calm,-,N/A,,Overcast,0,2013-05-19 12:51:00
9:16 AM,51.8,46.4,82,30.36,10.0,Calm,Calm,-,N/A,,Overcast,0,2013-05-19 13:16:00
9:51 AM,55.9,46.9,72,30.36,10.0,Calm,Calm,-,N/A,,Scattered Clouds,0,2013-05-19 13:51:00
10:51 AM,59.0,48.0,67,30.35,10.0,Calm,Calm,-,N/A,,Clear,0,2013-05-19 14:51:00
11:51 AM,63.0,48.0,58,30.33,10.0,Calm,Calm,-,N/A,,Clear,0,2013-05-19 15:51:00
12:51 PM,66.9,48.0,51,30.30,10.0,SSE,6.9,-,N/A,,Clear,160,2013-05-19 16:51:00
1:51 PM,70.0,48.0,46,30.27,10.0,South,6.9,-,N/A,,Mostly Cloudy,170,2013-05-19 17:51:00
2:51 PM,66.0,50.0,56,30.26,10.0,East,5.8,-,N/A,,Overcast,80,2013-05-19 18:51:00
3:51 PM,64.0,52.0,65,30.26,10.0,SE,8.1,-,0.00,Rain,Light Rain,130,2013-05-19 19:51:00
4:51 PM,62.1,51.1,67,30.26,10.0,SE,9.2,-,0.00,,Overcast,130,2013-05-19 20:51:00
5:51 PM,60.1,50.0,69,30.27,10.0,SSE,9.2,-,N/A,,Overcast,150,2013-05-19 21:51:00
6:51 PM,55.0,52.0,89,30.27,10.0,SE,5.8,-,0.01,Rain,Light Rain,140,2013-05-19 22:51:00
7:51 PM,53.1,51.1,93,30.27,10.0,SE,3.5,-,0.00,,Overcast,140,2013-05-19 23:51:00
8:51 PM,52.0,52.0,100,30.26,9.0,Variable,3.5,-,0.02,Rain,Light Rain,0,2013-05-20 00:51:00
9:04 PM,51.8,51.8,100,30.26,7.0,SE,5.8,-,0.00,Rain,Light Rain,140,2013-05-20 01:04:00
9:51 PM,53.1,52.0,96,30.26,7.0,Calm,Calm,-,0.03,Rain,Light Rain,0,2013-05-20 01:51:00
10:41 PM,53.6,51.8,94,30.24,5.0,East,4.6,-,0.02,Rain,Light Rain,100,2013-05-20 02:41:00
10:51 PM,53.1,53.1,100,30.24,4.0,ESE,3.5,-,0.03,Rain,Light Rain,120,2013-05-20 02:51:00
11:09 PM,53.6,51.8,94,30.23,2.5,East,5.8,-,0.01,Rain,Light Rain,100,2013-05-20 03:09:00
11:51 PM,52.0,52.0,100,30.21,2.0,ESE,3.5,-,0.07,Rain,Light Rain,110,2013-05-20 03:51:00